Flag Weather past 2 weeks in Changsha, Hunan, China

Now
61 °F

Light rain. Fog.


Feels Like: 61 °F
Forecast: 60 / 64 °F
Wind: 8 mph from North

Location: Changsha

Current Time: Oct 31, 2014 at 8:53:26 PM

Latest Report: Oct 31, 2014 at 8:00 PM


Visibility: 2 mi

Pressure: 30.07 "Hg

Humidity: 88%

Dew point: 57 °F

Location of ChangshaLocation

Historic Weather in Changsha — Graph

°F

Changsha temperature yesterday

Maximum temperature yesterday: 59 °F (at 12:00 AM)
Minimum temperature yesterday: 59 °F (at 12:00 AM)
Average temperature yesterday: 59 °F

Past Weeks' High & Low Weather Summary

 TemperatureHumidityPressure
High91 °F (Oct 20, 3:00 PM)94% (Oct 22, 4:00 AM)30.27 "Hg (Oct 22, 4:00 AM)
Low54 °F (Oct 23, 7:00 AM)27% (Oct 18, 3:00 PM)29.80 "Hg (Oct 20, 3:00 PM)
Average68 °F71%30.04 "Hg
* Reported Oct 16 7:00 PM — Oct 31 7:00 PM, Changsha, Weather by CustomWeather, © 2014

Note: Actual official high and low records may vary slightly from our data, if they occured in-between our weather recording intervals... More about our weather records

Advertising

Changsha weather history for previous 24 hours

 ConditionsComfort  
Time TempWeatherWind HumidityBarometerVisibility
7:00 PM
Oct 31
61 °FLight rain. Fog.6 mph88%30.04 "Hg2 mi
6:00 PM61 °FFog.8 mph88%30.04 "Hg2 mi
5:00 PM61 °FFog.8 mph88%30.01 "Hg2 mi
4:00 PM61 °FLight rain. Fog.3 mph88%30.01 "Hg3 mi
3:00 PM61 °FLight rain. Fog.6 mph88%30.01 "Hg3 mi
2:00 PM61 °FLight rain. Mostly cloudy.3 mph88%30.04 "Hg4 mi
1:00 PM61 °FLight rain. Mostly cloudy.6 mph88%30.04 "HgN/A
12:00 PM61 °FLight rain. Mostly cloudy.3 mph88%30.07 "Hg4 mi
11:00 AM61 °FLight rain. Mostly cloudy.6 mph88%30.09 "Hg4 mi
10:00 AM61 °FLight rain. Mostly cloudy.6 mph88%30.09 "Hg6 mi
9:00 AM61 °FRain. More clouds than sun.6 mph88%30.07 "Hg5 mi
8:00 AM59 °FLight rain. Cloudy.6 mph94%30.04 "Hg4 mi
7:00 AM59 °FLight rain. Fog.3 mph94%30.07 "Hg3 mi
6:00 AM59 °FLight rain. Fog.3 mph94%30.04 "Hg3 mi
5:00 AM59 °FLight rain. Fog.3 mph94%30.04 "Hg3 mi
4:00 AM59 °FDrizzle. Fog.6 mph88%30.04 "Hg2 mi
3:00 AM59 °FDrizzle. Fog.6 mph94%30.04 "Hg2 mi
2:00 AM59 °FDrizzle. Fog.8 mph88%30.04 "Hg3 mi
1:00 AM59 °FOvercast.6 mph94%30.04 "Hg4 mi
12:00 AM59 °FOvercast.6 mph88%30.04 "Hg4 mi
11:00 PM
Oct 30
59 °FOvercast.3 mph88%30.04 "Hg6 mi
10:00 PM59 °FLight rain. Overcast.3 mph88%30.07 "Hg4 mi
9:00 PM59 °FLight rain. Overcast.6 mph88%30.07 "Hg5 mi
8:00 PM59 °FSprinkles. Overcast.3 mph88%30.07 "Hg4 mi
Weather by CustomWeather, © 2014

See weather overviewHow to use our weather pages